Amsterdam, Netherlands

8:42 AM CEST on May 24, 2017 (GMT +0200)
Amsterdam

Weather History for 06240 - August, 2013

Change the Weather History Date:

Tuesday, August 13, 2013

  Actual Average Record
Temperature  
Mean Temperature 60 °F -  
Max Temperature 68 °F 67 °F - ()
Min Temperature 53 °F 53 °F - ()
Degree Days  
Heating Degree Days 4    
Growing Degree Days 10 (Base 50)    
Moisture  
Dew Point 51 °F    
Average Humidity 71    
Maximum Humidity 88    
Minimum Humidity 48    
Precipitation  
Precipitation 0.00 in - - ()
Sea Level Pressure  
Sea Level Pressure 30.06 in    
Wind  
Wind Speed 11 mph ()    
Max Wind Speed 21 mph    
Max Gust Speed 32 mph    
Visibility 6.2 miles    
Events Rain    
T = Trace of Precipitation, MM = Missing Value Source: Averaged Metar Reports

Daily Weather History Graph

Daily Weather History Graph

Search for Another Location

Airport or City:

Trip Planner

Search our weather history database for the weather conditions in past years. The results will help you decide how hot, cold, wet, or windy it might be!

Date:

Astronomy

Aug. 13, 2013 Rise Set
Actual Time 6:20 AM CEST 9:09 PM CEST
Civil Twilight 5:41 AM CEST 9:48 PM CEST
Nautical Twilight 4:51 AM CEST 10:38 PM CEST
Astronomical Twilight 3:48 AM CEST 11:40 PM CEST
Moon 1:58 PM CEST (8/13) 11:31 PM CEST (8/13)
Length of Visible Light 16h 06m
Length of Day
14h 48m
Waxing Crescent, 39% of the Moon is Illuminated
Aug 13
Waxing Crescent
Aug 14
First Quarter
Aug 21
Full
Aug 28
Last Quarter
Sep 5
New

Hourly Weather History & Observations

Time (CEST) Temp. Dew Point Humidity Pressure Visibility Wind Dir Wind Speed Gust Speed Precip Events Conditions
12:25 AM 59.0 °F 50.0 °F 72% 29.98 in 6.2 mi WSW 12.7 mph - N/A Rain Light Rain Showers
12:55 AM 57.2 °F 53.6 °F 88% 29.95 in 6.2 mi West 11.5 mph - N/A   Partly Cloudy
1:25 AM 59.0 °F 51.8 °F 77% 29.95 in - West 8.1 mph - N/A   Clear
1:55 AM 59.0 °F 51.8 °F 77% 29.95 in - West 8.1 mph - N/A   Clear
2:00 AM 58 °F 53 °F 76% 29.98 in 28 mi West 8.9 mph - - Rain Rain
2:25 AM 59.0 °F 51.8 °F 77% 29.95 in 6.2 mi West 9.2 mph - N/A   Partly Cloudy
2:55 AM 57.2 °F 51.8 °F 82% 29.95 in 6.2 mi West 8.1 mph - N/A   Partly Cloudy
3:25 AM 59.0 °F 51.8 °F 77% 29.98 in 6.2 mi West 10.4 mph - N/A   Partly Cloudy
3:55 AM 57.2 °F 51.8 °F 82% 29.98 in 6.2 mi WNW 8.1 mph - N/A   Partly Cloudy
4:25 AM 55.4 °F 51.8 °F 88% 29.98 in 6.2 mi West 5.8 mph - N/A   Scattered Clouds
4:55 AM 57.2 °F 51.8 °F 82% 29.98 in 6.2 mi West 6.9 mph - N/A   Scattered Clouds
5:25 AM 59.0 °F 53.6 °F 82% 29.98 in 6.2 mi West 9.2 mph - N/A   Partly Cloudy
5:55 AM 57.2 °F 51.8 °F 82% 29.98 in 6.2 mi WNW 8.1 mph - N/A   Partly Cloudy
6:25 AM 55.4 °F 50.0 °F 82% 29.98 in 6.2 mi West 5.8 mph - N/A   Partly Cloudy
6:55 AM 55.4 °F 51.8 °F 88% 29.98 in 6.2 mi West 5.8 mph - N/A   Partly Cloudy
7:25 AM 59.0 °F 53.6 °F 82% 30.01 in 6.2 mi WNW 10.4 mph - N/A Rain Light Rain Showers
7:55 AM 59.0 °F 53.6 °F 82% 30.01 in 6.2 mi West 11.5 mph - N/A   Partly Cloudy
8:25 AM 60.8 °F 53.6 °F 77% 30.01 in 6.2 mi West 17.3 mph - N/A   Scattered Clouds
8:55 AM 60.8 °F 53.6 °F 77% 30.01 in 6.2 mi WNW 12.7 mph - N/A   Partly Cloudy
9:25 AM 60.8 °F 51.8 °F 72% 30.04 in 6.2 mi WNW 17.3 mph - N/A   Partly Cloudy
9:55 AM 64.4 °F 53.6 °F 68% 30.04 in 6.2 mi WNW 17.3 mph - N/A   Scattered Clouds
10:25 AM 62.6 °F 51.8 °F 68% 30.04 in 6.2 mi WNW 16.1 mph - N/A   Scattered Clouds
10:55 AM 60.8 °F 51.8 °F 72% 30.06 in 6.2 mi WNW 15.0 mph - N/A Rain Light Rain Showers
11:00 AM 62 °F 51 °F 59% 30.07 in 25 mi West 15.7 mph - - Rain Light Rain Showers
11:25 AM 64.4 °F 53.6 °F 68% 30.06 in 6.2 mi West 16.1 mph - N/A   Partly Cloudy
11:55 AM 66.2 °F 53.6 °F 64% 30.06 in 6.2 mi WNW 20.7 mph - N/A   Scattered Clouds
12:25 PM 66.2 °F 51.8 °F 60% 30.06 in 6.2 mi West 19.6 mph 32.2 mph N/A Rain Light Rain Showers
12:55 PM 66.2 °F 53.6 °F 64% 30.06 in 6.2 mi West 20.7 mph - N/A   Scattered Clouds
1:25 PM 66.2 °F 51.8 °F 60% 30.09 in 6.2 mi West 20.7 mph - N/A   Scattered Clouds
1:55 PM 62.6 °F 51.8 °F 68% 30.09 in 6.2 mi WNW 19.6 mph - N/A   Scattered Clouds
2:00 PM 66 °F 51 °F 48% 30.10 in 22 mi WNW 20.1 mph - -   Partly Cloudy
2:25 PM 68.0 °F 51.8 °F 56% 30.09 in 6.2 mi WNW 18.4 mph - N/A   Scattered Clouds
2:55 PM 68.0 °F 51.8 °F 56% 30.09 in 6.2 mi West 19.6 mph - N/A   Partly Cloudy
3:25 PM 66.2 °F 51.8 °F 60% 30.09 in 6.2 mi WNW 19.6 mph - N/A   Partly Cloudy
3:55 PM 66.2 °F 51.8 °F 60% 30.09 in 6.2 mi WNW 18.4 mph - N/A   Scattered Clouds
4:25 PM 66.2 °F 51.8 °F 60% 30.12 in 6.2 mi WNW 17.3 mph - N/A   Partly Cloudy
4:55 PM 66.2 °F 50.0 °F 56% 30.12 in 6.2 mi WNW 17.3 mph - N/A   Partly Cloudy
5:00 PM 65 °F 50 °F 48% 30.13 in 25 mi WNW 17.9 mph - -   Mostly Cloudy
5:25 PM 62.6 °F 50.0 °F 63% 30.12 in 6.2 mi WNW 17.3 mph - N/A   Partly Cloudy
5:55 PM 64.4 °F 51.8 °F 64% 30.12 in 6.2 mi WNW 16.1 mph - N/A   Partly Cloudy
6:25 PM 64.4 °F 51.8 °F 64% 30.12 in 6.2 mi WNW 15.0 mph - N/A   Partly Cloudy
6:55 PM 62.6 °F 50.0 °F 63% 30.12 in 6.2 mi WNW 13.8 mph - N/A   Partly Cloudy
7:25 PM 62.6 °F 50.0 °F 63% 30.12 in 6.2 mi West 13.8 mph - N/A   Partly Cloudy
7:55 PM 60.8 °F 50.0 °F 68% 30.12 in 6.2 mi West 12.7 mph - N/A   Partly Cloudy
8:25 PM 60.8 °F 50.0 °F 68% 30.12 in 6.2 mi West 12.7 mph - N/A   Partly Cloudy
8:55 PM 59.0 °F 50.0 °F 72% 30.15 in 6.2 mi West 10.4 mph - N/A   Partly Cloudy
9:25 PM 57.2 °F 50.0 °F 77% 30.15 in 6.2 mi West 8.1 mph - N/A   Partly Cloudy
9:55 PM 55.4 °F 48.2 °F 77% 30.15 in 6.2 mi West 8.1 mph - N/A   Partly Cloudy
10:25 PM 55.4 °F 48.2 °F 77% 30.15 in 6.2 mi West 6.9 mph - N/A   Partly Cloudy
10:55 PM 53.6 °F 48.2 °F 82% 30.15 in 6.2 mi West 6.9 mph - N/A   Partly Cloudy
11:00 PM 54 °F 48 °F 73% 30.17 in 28 mi WNW 6.7 mph - -  
11:25 PM 53.6 °F 48.2 °F 82% 30.15 in 6.2 mi WNW 5.8 mph - N/A   Partly Cloudy
11:55 PM 53.6 °F 48.2 °F 82% 30.15 in 6.2 mi West 5.8 mph - N/A   Partly Cloudy